Location: Sevilla
(37.3933°N, 5.9839°W)
Time: 06:04:53
(UTC+02:00)

Vanguard 3 - Pass Details

Date: 30 June 2024
Orbit: 508 x 3231 km, 33.4° (Epoch: 15 July)

Event Time Altitude Azimuth Distance (km) Brightness Sun altitude
Rises 09:50:05 0° 252° (WSW) 6,903 11.3 29.7°
Reaches altitude 10° 09:55:11 10° 251° (WSW) 5,617 11.0 30.7°
Maximum altitude 10:10:47 69° 173° (S) 2,028 9.7 33.8°
Drops below altitude 10° 10:19:34 10° 92° (E) 3,333 11.7 35.5°
Sets 10:21:50 0° 89° (E) 4,030 11.7 36.0°
